Regional Weather Roundup
Issued by NWS Sterling, VA

Home | Current Version | Previous Version | Graphics & Text | Print | Product List | Glossary On
Versions: 1 2 3 4 5 6 7 8 9 10 11 12 13 14 15 16 17 18 19 20 21 22 23 24 25 26 27 28 29 30 31 32 33 34 35 36 37 38 39 40 41 42 43 44 45 46 47 48 49 50
000
ASUS41 KLWX 221610
RWRLWX

REGIONAL WEATHER ROUNDUP
NATIONAL WEATHER SERVICE BALTIMORE MD/WASHINGTON DC
1200 PM EDT TUE JUL 22 2014

Note: "FAIR" indicates few or no clouds below 12,000 feet
with no significant weather and/or obstructions to visibility.
 TC=TEMPERATURE CELSIUS

 * =Non NWS site. Station does not report precipitation (e.g. rain,
    snow, etc.), thunder, or fog.

DCZ001-MDZ009-015-VAZ040>042-051-053>054-221700-
WASHINGTON METRO
  /KDAA//-FT BELVOIR

CITY           SKY/WX    TMP DP  RH WIND       PRES   REMARKS
WASHINGTON NAT PTSUNNY   84  68  58 S8        30.17F
DULLES         PTSUNNY   79  69  71 S6        30.17F
ANDREWS AFB    PTSUNNY   81  70  68 SE9       30.18F
QUANTICO       PTSUNNY   80  69  69 SW9       30.19S
COLLEGE PARK*  CLOUDY    82  70  65 CALM      30.17S
LEESBURG*      PTSUNNY   81  72  74 S8        30.19F
MANASSAS*      CLOUDY    81  75  83 S5        30.18F
GAITHERSBURG*  CLOUDY    79  70  73 SE7       30.21F

$$

MDZ006>007-011-014-221700-
BALTIMORE METRO

CITY           SKY/WX    TMP DP  RH WIND       PRES   REMARKS
BWI AIRPORT    PTSUNNY   80  69  69 VRB3      30.16F
MD SCIENCE CTR   N/A     81  69  67 MISG      30.16F
MARTIN STATE   PTSUNNY   82  73  74 SE9       30.18F
ANNAPOLIS      MOSUNNY   80  68  66 SE13      30.17F
FORT MEADE*    CLOUDY    79  68  69 S7        30.19F

$$

MDZ012-015-019>023-221700-
MARYLAND EASTERN SHORE

CITY           SKY/WX    TMP DP  RH WIND       PRES   REMARKS
OCEAN CITY     MOSUNNY   76  68  76 SE5       30.19F
SALISBURY      NOT AVBL
BAY BRIDGE AP*   N/A     81  64  57 S8        30.18S
CAMBRIDGE*     SUNNY     82  61  47 SE7       30.17F
EASTON*        SUNNY     84  66  54 SE7       30.21F

$$

MDZ017>025-221700-
SOUTHERN MARYLAND

CITY           SKY/WX    TMP DP  RH WIND       PRES   REMARKS
PATUXENT RIVER PTSUNNY   79  68  69 SE9       30.18F
ST INIGOES     MOSUNNY   81  64  56 E6        30.17F
LEONARDTOWN*   CLOUDY    79  64  61 NE7       30.19F

$$

MDZ003>005-221700-
NORTH CENTRAL MARYLAND

CITY           SKY/WX    TMP DP  RH WIND       PRES   REMARKS
FREDERICK*     CLOUDY    73  73 100 S3        30.20F
HAGERSTOWN APT PTSUNNY   80  69  69 S9        30.17F
WESTMINSTER*   CLOUDY    79  72  78 SW7       30.19F

$$

MDZ501>502-221700-
WESTERN MARYLAND

CITY           SKY/WX    TMP DP  RH WIND       PRES   REMARKS
OAKLAND*       PTSUNNY   73  68  83 CALM      30.25F
CUMBERLAND*    SUNNY     86  70  58 W3        30.19F HX  90

$$

VAZ025>031-221700-
SHENANDOAH VALLEY

CITY           SKY/WX    TMP DP  RH WIND       PRES   REMARKS
WINCHESTER*    MOSUNNY   81  68  65 SE7       30.17F
STAUNTON*      PTSUNNY   81  67  63 SE3       30.21F

$$

WVZ021-048>050-054>055-221700-
EASTERN WEST VIRGINIA PANHANDLE

CITY           SKY/WX    TMP DP  RH WIND       PRES   REMARKS
MARTINSBURG    MOSUNNY   81  68  64 S9        30.16F
PETERSBURG*    SUNNY     82  59  46 E3        30.16F

$$

VAZ036>039-050-221700-
CENTRAL FOOTHILLS

CITY           SKY/WX    TMP DP  RH WIND       PRES   REMARKS
CHARLOTTESVILL PTSUNNY   81  69  67 CALM      30.18F
ORANGE*        PTSUNNY   81  70  69 E3        30.19F

$$

VAZ055>057-221700-
NORTH AND CENTRAL PIEDMONT

CITY           SKY/WX    TMP DP  RH WIND       PRES   REMARKS
FREDERICKSBRG* PTSUNNY   81  70  68 CALM      30.17F
STAFFORD*      CLOUDY    79  75  86 S5        30.22F

$$

NCZ024-NYZ072-PAZ021-071-VAZ022-071-221700-
OTHER REGIONAL OBSERVATIONS

CITY           SKY/WX    TMP DP  RH WIND       PRES   REMARKS
NEW YORK CITY  MOSUNNY   83  66  56 VRB6      30.17F
PHILADELPHIA   MOSUNNY   83  65  54 SW8       30.16F
PITTSBURGH     MOSUNNY   83  68  60 CALM      30.14F
ROANOKE        PTSUNNY   81  67  62 SE6       30.21F
RICHMOND       CLOUDY    86  67  52 NE5       30.17F
RALEIGH        PTSUNNY   81  71  71 E8        30.17F

$$

ANZ530>537-221700-
MARINE OBSERVATIONS

STATION/POSITION TIME  TEMP    WIND        PRES
                       AIR SEA DIR/SP/G
                 (UTC) (F)     (DEG/KT/KT) (MB)
THOMAS PT LIGHT  1600   77 79  190/  8/ 10 1022.3F
BALT KEY BRIDGE  1600   87     130/  5/  5 1021.4F
COVE POINT       1600   77     170/  7/  9 1021.9F
LEWISETTA        1600   77 80  100/ 10/ 11 1021.6F
SOLOMONS ISLAND  1600      81                N/A
PINEY POINT      1600          160/  8/ 10   N/A

$$



USA.gov is the U.S. government's official web portal to all federal, state and local government web resources and services.